SL-16 DEB, 24301

Orbit data source: Space-Track

SL-16 DEB, 24301 is space debris in LEO originally from a launch on Wed, 04 Sep 1996 UTC launched from the Tyuratam Missile And Space Complex (TTMTR). Debris objects in space refer to the collection of defunct objects orbiting the Earth. Examples of debris include non-operational satellites, rocket bodies, and fragments generated from explosions, collisions, or faulty payload assembly.

Loading next visibility...
Identifier
24301, 1996-051E
Orbit
LEO
Country
Flag of CISCIS
Related business
Manufacturer
Yuzhnoe
Mission
Spacecraft
Bus & Motor
SEP MOTOR COVER, Unknown motor
Mass
~0 kg wet, ~1 kg dry
Launch date (UTC)
1996-09-04 (30 years ago)
Launch vehicle
Unknown
Launch site
Tyuratam Missile And Space Complex (TTMTR)
Object type
Payload
Rocket body
Debris
Shape & HBR
Unknown
Radar Cross Section
Small (<0.1 m²)

Expand to show TLE details & history
Last TLE update: 15 hours ago

TLE from 15 hours ago
0 SL-16 DEB
1 24301U 96051E   26093.97706691  .00000124  00000-0  15706-3 0  9995
2 24301  70.9920 295.9473 0208678 281.9390 197.5958 13.72595105480780
Epoch: 2026-04-03T23:26Z
TLE epoch observation values (Epoch: 2026-04-03T23:26:58.581Z)
Latitude
56.03003°
Longitude
-98.67775°
Altitude
1,145.928 km
Speed
7.212 km/s
True Right ascension
05h 41m 28s
True Declination
55° 52' 43"
Sunlit
Object was in daylight at epoch
Visualization orbit readout
Latitude
Unknown
Longitude
Unknown
Altitude
Unknown
Speed
Unknown
Apparent Right ascension
Unknown
Apparent Declination
Unknown
Sunlit
N/A
Visualization observer readout
Local Sidereal Time
20:26:44
Azimuth
Unknown
Elevation
Unknown
Doppler factor
Unknown
Orbital elements
Apogee altitude
1,141.955 km
Perigee altitude
834.515 km
Semi-major axis
7,366.372 km
Eccentricity
0.02087
Inclination
70.992°
RAAN
295.9473°
Arg. of periapsis
281.939°
True anomaly
196.89049°
Mean anomaly
197.5958°
Eccentric anomaly
197.24142°
Mean motion
3.43291 °/min
Orbital period
104.87 mins
BSTAR
0.00015706
Loading maneuver chart data...
Computing Atmospheric mass density...
Loading historical data...
Loading historical data...
Loading historical data...
Loading historical data...
Loading historical data...
Loading historical data...
Loading historical data...

Documentation

Showing up to 5 results
|